| time (UTC) | temp F | wind direction | speed MPH | gust MPH | rain 1hr in | rain 24hr in | rain mn in | humidity % | barometer mb |
| 20260506105903 | 76 | 39 | 1.0 | 5.0 | 0.00 | 0.09 | 0.00 | 89 | 1011.1 |
| 20260506105404 | 76 | 61 | 3.0 | 3.0 | 0.00 | 0.09 | 0.00 | 89 | 1011.1 |
| 20260506104404 | 76 | 318 | 0.0 | 2.0 | 0.00 | 0.09 | 0.00 | 89 | 1011.0 |
| 20260506103904 | 76 | 349 | 0.0 | 1.0 | 0.00 | 0.09 | 0.00 | 89 | 1011.0 |
| 20260506103403 | 76 | 21 | 1.0 | 3.0 | 0.00 | 0.11 | 0.00 | 89 | 1011.0 |
| 20260506102904 | 76 | 55 | 2.0 | 3.0 | 0.00 | 0.11 | 0.00 | 89 | 1010.9 |
| 20260506102404 | 76 | 1 | 0.0 | 3.0 | 0.00 | 0.12 | 0.00 | 89 | 1010.8 |
| 20260506101904 | 76 | 17 | 1.0 | 5.0 | 0.00 | 0.12 | 0.00 | 89 | 1010.7 |
| 20260506101404 | 76 | 36 | 4.0 | 6.0 | 0.00 | 0.12 | 0.00 | 89 | 1010.7 |
| 20260506100904 | 76 | 56 | 4.0 | 6.0 | 0.00 | 0.12 | 0.00 | 89 | 1010.7 |
| 20260506100404 | 76 | 61 | 3.0 | 5.0 | 0.00 | 0.12 | 0.00 | 88 | 1010.7 |
| 20260506095904 | 77 | 30 | 1.0 | 3.0 | 0.00 | 0.12 | 0.00 | 88 | 1010.7 |
| 20260506095403 | 76 | 50 | 1.0 | 3.0 | 0.00 | 0.12 | 0.00 | 89 | 1010.7 |
| 20260506094904 | 76 | 1 | 3.0 | 12.0 | 0.00 | 0.12 | 0.00 | 88 | 1010.7 |
| 20260506094404 | 77 | 40 | 2.0 | 3.0 | 0.00 | 0.12 | 0.00 | 88 | 1010.7 |
| 20260506093904 | 77 | 356 | 0.0 | 3.0 | 0.00 | 0.12 | 0.00 | 88 | 1010.7 |
| 20260506093404 | 77 | 56 | 2.0 | 3.0 | 0.00 | 0.12 | 0.00 | 88 | 1010.7 |
| 20260506091904 | 77 | 38 | 3.0 | 6.0 | 0.00 | 0.12 | 0.00 | 88 | 1010.7 |
| 20260506091404 | 77 | 55 | 1.0 | 6.0 | 0.00 | 0.12 | 0.00 | 88 | 1010.6 |
| 20260506090904 | 77 | 54 | 1.0 | 8.0 | 0.00 | 0.12 | 0.00 | 88 | 1010.7 |
| 20260506090404 | 77 | 48 | 2.0 | 5.0 | 0.00 | 0.12 | 0.00 | 88 | 1010.7 |
| 20260506085904 | 77 | 329 | 3.0 | 7.0 | 0.00 | 0.12 | 0.00 | 88 | 1010.7 |
| 20260506085404 | 76 | 25 | 3.0 | 7.0 | 0.00 | 0.12 | 0.00 | 88 | 1010.6 |
| 20260506084904 | 76 | 44 | 3.0 | 8.0 | 0.00 | 0.12 | 0.00 | 88 | 1010.6 |
| 20260506083904 | 76 | 349 | 4.0 | 7.0 | 0.00 | 0.12 | 0.00 | 88 | 1010.7 |
| 20260506082904 | 76 | 48 | 2.0 | 6.0 | 0.00 | 0.12 | 0.00 | 89 | 1010.8 |
| 20260506082403 | 76 | 58 | 5.0 | 8.0 | 0.00 | 0.12 | 0.00 | 89 | 1010.8 |
| 20260506081904 | 76 | 53 | 2.0 | 6.0 | 0.00 | 0.12 | 0.00 | 89 | 1010.8 |
| 20260506081404 | 76 | 38 | 2.0 | 6.0 | 0.00 | 0.12 | 0.00 | 89 | 1010.7 |
| 20260506080903 | 76 | 60 | 5.0 | 8.0 | 0.00 | 0.12 | 0.00 | 89 | 1010.7 |
| 20260506080404 | 76 | 51 | 4.0 | 7.0 | 0.00 | 0.12 | 0.00 | 88 | 1010.7 |
| 20260506073404 | 76 | 336 | 0.0 | 3.0 | 0.00 | 0.12 | 0.00 | 89 | 1011.0 |
| 20260506072904 | 76 | 51 | 3.0 | 6.0 | 0.00 | 0.12 | 0.00 | 88 | 1011.1 |
| 20260506071903 | 76 | 53 | 3.0 | 5.0 | 0.00 | 0.12 | 0.00 | 88 | 1011.4 |
| 20260506071404 | 76 | 46 | 2.0 | 6.0 | 0.00 | 0.12 | 0.00 | 88 | 1011.4 |
| 20260506070904 | 76 | 54 | 3.0 | 8.0 | 0.00 | 0.12 | 0.00 | 87 | 1011.4 |
| 20260506070404 | 76 | 50 | 1.0 | 3.0 | 0.00 | 0.12 | 0.00 | 87 | 1011.3 |
| 20260506062404 | 76 | 56 | 3.0 | 5.0 | 0.00 | 0.12 | 0.00 | 87 | 1011.7 |
| 20260506061404 | 76 | 50 | 3.0 | 6.0 | 0.00 | 0.12 | 0.00 | 87 | 1011.8 |
| 20260506060903 | 76 | 49 | 3.0 | 6.0 | 0.00 | 0.13 | 0.00 | 87 | 1011.8 |
| 20260506060404 | 76 | 11 | 2.0 | 7.0 | 0.00 | 0.13 | 0.00 | 87 | 1011.8 |
| 20260506051405 | 76 | 10 | 1.0 | 6.0 | 0.00 | 0.25 | 0.00 | 87 | 1012.4 |
| 20260506050907 | 76 | 32 | 2.0 | 6.0 | 0.00 | 0.26 | 0.00 | 88 | 1012.5 |
| 20260506050404 | 76 | 58 | 3.0 | 7.0 | 0.00 | 0.26 | 0.00 | 88 | 1012.5 |
| 20260506044904 | 76 | 58 | 4.0 | 7.0 | 0.00 | 0.30 | 0.00 | 87 | 1012.6 |
| 20260506044404 | 76 | 57 | 3.0 | 7.0 | 0.00 | 0.30 | 0.00 | 87 | 1012.7 |
| 20260506043904 | 76 | 50 | 4.0 | 8.0 | 0.00 | 0.30 | 0.00 | 87 | 1012.7 |
| 20260506042904 | 76 | 59 | 2.0 | 6.0 | 0.00 | 0.31 | 0.00 | 87 | 1012.8 |
| 20260506042404 | 76 | 59 | 5.0 | 6.0 | 0.00 | 0.31 | 0.00 | 87 | 1012.7 |
| 20260506041904 | 76 | 55 | 3.0 | 7.0 | 0.00 | 0.32 | 0.00 | 87 | 1012.8 |
| 20260506041404 | 76 | 34 | 3.0 | 7.0 | 0.00 | 0.32 | 0.00 | 87 | 1012.8 |
| 20260506040904 | 76 | 34 | 3.0 | 8.0 | 0.00 | 0.32 | 0.00 | 87 | 1012.9 |
| 20260506040404 | 76 | 48 | 1.0 | 3.0 | 0.00 | 0.32 | 0.00 | 87 | 1013.0 |
| 20260506035404 | 76 | 63 | 4.0 | 8.0 | 0.00 | 0.32 | 0.00 | 86 | 1013.1 |
| 20260506034904 | 77 | 59 | 3.0 | 10.0 | 0.00 | 0.32 | 0.00 | 86 | 1013.0 |
| 20260506034403 | 77 | 12 | 1.0 | 2.0 | 0.00 | 0.32 | 0.00 | 86 | 1012.9 |
| 20260506033904 | 77 | 51 | 2.0 | 5.0 | 0.00 | 0.32 | 0.00 | 86 | 1012.9 |
| 20260506033404 | 76 | 262 | 0.0 | 6.0 | 0.00 | 0.32 | 0.00 | 88 | 1013.0 |
| 20260506032903 | 75 | 44 | 6.0 | 10.0 | 0.00 | 0.32 | 0.00 | 88 | 1013.0 |
| 20260506032404 | 75 | 44 | 3.0 | 7.0 | 0.00 | 0.32 | 0.00 | 88 | 1013.1 |
| 20260506031904 | 75 | 43 | 2.0 | 8.0 | 0.00 | 0.32 | 0.00 | 88 | 1013.1 |
| 20260506031404 | 75 | 54 | 3.0 | 7.0 | 0.00 | 0.32 | 0.00 | 88 | 1013.1 |
| 20260506030904 | 75 | 51 | 3.0 | 5.0 | 0.00 | 0.33 | 0.00 | 88 | 1013.0 |
| 20260506030404 | 75 | 37 | 3.0 | 9.0 | 0.00 | 0.33 | 0.00 | 88 | 1013.0 |
| 20260506025904 | 75 | 50 | 3.0 | 10.0 | 0.00 | 0.34 | 0.00 | 89 | 1013.1 |
| 20260506023904 | 75 | 58 | 5.0 | 9.0 | 0.00 | 0.48 | 0.00 | 88 | 1013.1 |
| 20260506023404 | 75 | 57 | 5.0 | 9.0 | 0.00 | 0.52 | 0.00 | 88 | 1013.1 |
| 20260506022904 | 75 | 51 | 4.0 | 7.0 | 0.00 | 0.55 | 0.00 | 88 | 1013.1 |
| 20260506022404 | 75 | 46 | 1.0 | 3.0 | 0.00 | 0.56 | 0.00 | 89 | 1013.1 |
| 20260506021904 | 75 | 55 | 3.0 | 6.0 | 0.00 | 0.56 | 0.00 | 89 | 1013.2 |
| 20260506021404 | 75 | 13 | 3.0 | 7.0 | 0.00 | 0.57 | 0.00 | 88 | 1013.1 |
| 20260506020904 | 75 | 40 | 0.0 | 2.0 | 0.00 | 0.58 | 0.00 | 89 | 1013.1 |
| 20260506020404 | 74 | 1 | 2.0 | 6.0 | 0.00 | 0.60 | 0.00 | 90 | 1013.1 |
| 20260506015404 | 74 | 353 | 0.0 | 5.0 | 0.00 | 0.61 | 0.00 | 90 | 1013.2 |
| 20260506014904 | 74 | 62 | 5.0 | 10.0 | 0.00 | 0.62 | 0.00 | 90 | 1013.2 |
| 20260506014404 | 74 | 10 | 3.0 | 8.0 | 0.00 | 0.62 | 0.00 | 90 | 1013.2 |
| 20260506013904 | 74 | 23 | 3.0 | 7.0 | 0.00 | 0.64 | 0.00 | 90 | 1013.1 |
| 20260506013403 | 74 | 57 | 2.0 | 6.0 | 0.00 | 0.65 | 0.00 | 90 | 1013.2 |
| 20260506012904 | 74 | 41 | 2.0 | 6.0 | 0.00 | 0.66 | 0.00 | 90 | 1013.2 |
| 20260506012403 | 74 | 44 | 3.0 | 3.0 | 0.00 | 0.67 | 0.00 | 90 | 1013.3 |
| 20260506011904 | 74 | 339 | 1.0 | 3.0 | 0.00 | 0.68 | 0.00 | 91 | 1013.3 |
| 20260506010903 | 73 | 29 | 1.0 | 5.0 | 0.00 | 0.78 | 0.00 | 91 | 1013.4 |
| 20260506010405 | 73 | 51 | 3.0 | 8.0 | 0.00 | 0.83 | 0.00 | 91 | 1013.5 |
| 20260506005904 | 73 | 65 | 2.0 | 9.0 | 0.00 | 0.87 | 0.00 | 91 | 1013.4 |
| 20260506005404 | 73 | 63 | 2.0 | 7.0 | 0.00 | 0.92 | 0.00 | 91 | 1013.5 |
| 20260506004904 | 73 | 57 | 1.0 | 6.0 | 0.00 | 0.94 | 0.00 | 91 | 1013.3 |
| 20260506004404 | 73 | 350 | 1.0 | 3.0 | 0.00 | 0.97 | 0.00 | 91 | 1013.3 |
| 20260506003903 | 73 | 58 | 4.0 | 8.0 | 0.00 | 0.99 | 0.00 | 91 | 1013.2 |
| 20260506003404 | 73 | 48 | 6.0 | 10.0 | 0.00 | 1.00 | 0.00 | 90 | 1013.2 |
| 20260506002903 | 73 | 0 | 1.0 | 9.0 | 0.00 | 1.01 | 0.00 | 90 | 1013.2 |
| 20260506002404 | 73 | 58 | 3.0 | 5.0 | 0.00 | 1.02 | 0.00 | 90 | 1013.2 |
| 20260506001904 | 73 | 41 | 2.0 | 3.0 | 0.00 | 1.03 | 0.00 | 90 | 1013.2 |
| 20260506001405 | 73 | 20 | 2.0 | 5.0 | 0.00 | 1.04 | 0.00 | 90 | 1013.1 |
| 20260506000904 | 73 | 58 | 1.0 | 6.0 | 0.00 | 1.06 | 0.00 | 90 | 1013.1 |
| 20260506000404 | 73 | 50 | 3.0 | 8.0 | 0.00 | 1.07 | 0.00 | 90 | 1013.1 |
| 20260505235904 | 73 | 57 | 2.0 | 5.0 | 0.00 | 1.07 | 0.00 | 90 | 1012.9 |
| 20260505235404 | 73 | 25 | 3.0 | 8.0 | 0.00 | 1.08 | 0.00 | 90 | 1012.7 |
| 20260505234904 | 73 | 57 | 4.0 | 10.0 | 0.00 | 1.08 | 0.00 | 90 | 1012.8 |
| 20260505234403 | 73 | 47 | 2.0 | 3.0 | 0.00 | 1.11 | 0.00 | 90 | 1012.7 |
| 20260505233904 | 73 | 6 | 2.0 | 6.0 | 0.00 | 1.11 | 0.00 | 90 | 1012.7 |
| 20260505232904 | 73 | 49 | 3.0 | 9.0 | 0.00 | 1.11 | 0.00 | 90 | 1012.8 |
| 20260505232404 | 73 | 60 | 2.0 | 5.0 | 0.00 | 1.11 | 0.00 | 90 | 1012.6 |
| 20260505231404 | 73 | 30 | 1.0 | 3.0 | 0.00 | 1.11 | 0.00 | 90 | 1012.6 |
| 20260505230904 | 73 | 47 | 2.0 | 6.0 | 0.00 | 1.12 | 0.00 | 90 | 1012.6 |
| 20260505230404 | 73 | 31 | 2.0 | 5.0 | 0.00 | 1.12 | 0.00 | 90 | 1012.7 |
| 20260505225904 | 73 | 51 | 0.0 | 3.0 | 0.00 | 1.12 | 0.00 | 90 | 1012.6 |
| 20260505225404 | 73 | 37 | 1.0 | 3.0 | 0.00 | 1.13 | 0.00 | 90 | 1012.6 |
| 20260505224904 | 73 | 3 | 1.0 | 2.0 | 0.00 | 1.14 | 0.00 | 90 | 1012.5 |
| 20260505224404 | 73 | 354 | 0.0 | 0.0 | 0.00 | 1.15 | 0.00 | 90 | 1012.4 |
| 20260505223904 | 73 | 19 | 0.0 | 0.0 | 0.00 | 1.16 | 0.00 | 91 | 1012.4 |
| 20260505223404 | 72 | 42 | 0.0 | 2.0 | 0.00 | 1.16 | 0.00 | 90 | 1012.4 |
| 20260505222903 | 72 | 61 | 2.0 | 5.0 | 0.00 | 1.17 | 0.00 | 90 | 1012.2 |
| 20260505222403 | 72 | 0 | 0.0 | 1.0 | 0.00 | 1.18 | 0.00 | 91 | 1012.2 |
| 20260505221904 | 72 | 16 | 0.0 | 2.0 | 0.00 | 1.19 | 0.00 | 91 | 1012.1 |
| 20260505221404 | 72 | 310 | 0.0 | 0.0 | 0.00 | 1.21 | 0.00 | 91 | 1012.1 |
| 20260505220904 | 72 | 355 | 0.0 | 0.0 | 0.00 | 1.23 | 0.00 | 91 | 1012.1 |
| 20260505215904 | 72 | 0 | 0.0 | 0.0 | 0.00 | 1.30 | 0.00 | 91 | 1011.9 |
| 20260505215404 | 72 | 1 | 0.0 | 0.0 | 0.00 | 1.35 | 0.00 | 90 | 1011.9 |
| 20260505214904 | 72 | 3 | 0.0 | 0.0 | 0.00 | 1.41 | 0.00 | 90 | 1011.9 |
| 20260505214404 | 72 | 11 | 0.0 | 2.0 | 0.00 | 1.49 | 0.00 | 90 | 1011.9 |
| 20260505213904 | 72 | 299 | 0.0 | 0.0 | 0.00 | 1.52 | 0.00 | 90 | 1011.8 |
| 20260505213404 | 72 | 300 | 0.0 | 1.0 | 0.00 | 1.52 | 0.00 | 90 | 1011.9 |
| 20260505212904 | 72 | 329 | 0.0 | 1.0 | 0.00 | 1.52 | 0.00 | 90 | 1012.0 |
| 20260505212404 | 72 | 329 | 0.0 | 1.0 | 0.00 | 1.52 | 0.00 | 90 | 1012.1 |
| 20260505211904 | 72 | 323 | 0.0 | 0.0 | 0.00 | 1.52 | 0.00 | 90 | 1012.0 |
| 20260505211404 | 72 | 324 | 0.0 | 1.0 | 0.00 | 1.52 | 0.00 | 90 | 1011.9 |
| 20260505210904 | 72 | 256 | 0.0 | 1.0 | 0.00 | 1.52 | 0.00 | 90 | 1011.9 |
| 20260505210404 | 72 | 295 | 0.0 | 0.0 | 0.00 | 1.52 | 0.00 | 90 | 1011.9 |
| 20260505205904 | 72 | 319 | 0.0 | 1.0 | 0.00 | 1.52 | 0.00 | 90 | 1011.9 |
| 20260505205404 | 72 | 352 | 0.0 | 2.0 | 0.00 | 1.52 | 0.00 | 90 | 1011.8 |
| 20260505204404 | 72 | 329 | 0.0 | 1.0 | 0.00 | 1.52 | 0.00 | 90 | 1011.6 |
| 20260505203904 | 72 | 329 | 0.0 | 1.0 | 0.00 | 1.52 | 0.00 | 90 | 1011.4 |
| 20260505203404 | 72 | 347 | 0.0 | 3.0 | 0.00 | 1.53 | 0.00 | 90 | 1011.5 |
| 20260505202404 | 72 | 323 | 0.0 | 0.0 | 0.00 | 1.53 | 0.00 | 90 | 1011.6 |
| 20260505201904 | 72 | 323 | 0.0 | 1.0 | 0.00 | 1.53 | 0.00 | 90 | 1011.6 |
| 20260505201404 | 72 | 47 | 1.0 | 3.0 | 0.00 | 1.53 | 0.00 | 90 | 1011.5 |
| 20260505200404 | 72 | 0 | 1.0 | 2.0 | 0.00 | 1.53 | 0.00 | 90 | 1011.5 |
| 20260505195903 | 72 | 351 | 0.0 | 2.0 | 0.00 | 1.53 | 0.00 | 90 | 1011.5 |
| 20260505195404 | 72 | 12 | 1.0 | 2.0 | 0.00 | 1.53 | 0.00 | 90 | 1011.4 |
| 20260505194904 | 72 | 342 | 0.0 | 1.0 | 0.00 | 1.53 | 0.00 | 90 | 1011.4 |
| 20260505194404 | 72 | 335 | 0.0 | 1.0 | 0.00 | 1.53 | 0.00 | 90 | 1011.5 |
| 20260505193404 | 72 | 58 | 2.0 | 5.0 | 0.00 | 1.53 | 0.00 | 90 | 1011.5 |
| 20260505192903 | 72 | 341 | 0.0 | 1.0 | 0.00 | 1.53 | 0.00 | 90 | 1011.4 |
| 20260505192404 | 72 | 342 | 0.0 | 0.0 | 0.00 | 1.53 | 0.00 | 90 | 1011.4 |
| 20260505191903 | 72 | 342 | 0.0 | 3.0 | 0.00 | 1.53 | 0.00 | 90 | 1011.4 |
| 20260505191404 | 72 | 333 | 0.0 | 0.0 | 0.00 | 1.53 | 0.00 | 90 | 1011.4 |
| 20260505190904 | 72 | 339 | 0.0 | 1.0 | 0.00 | 1.53 | 0.00 | 90 | 1011.4 |
| 20260505190404 | 72 | 342 | 0.0 | 2.0 | 0.00 | 1.53 | 0.00 | 90 | 1011.4 |
| 20260505185904 | 72 | 358 | 0.0 | 1.0 | 0.00 | 1.54 | 0.00 | 90 | 1011.4 |
| 20260505185404 | 72 | 341 | 0.0 | 3.0 | 0.00 | 1.54 | 0.00 | 90 | 1011.3 |
| 20260505184904 | 72 | 19 | 0.0 | 3.0 | 0.00 | 1.54 | 0.00 | 90 | 1011.3 |
| 20260505184404 | 72 | 10 | 0.0 | 0.0 | 0.00 | 1.54 | 0.00 | 91 | 1011.3 |
| 20260505183404 | 72 | 339 | 0.0 | 1.0 | 0.00 | 1.54 | 0.00 | 91 | 1011.4 |
| 20260505182904 | 72 | 15 | 0.0 | 1.0 | 0.00 | 1.54 | 0.00 | 91 | 1011.5 |
| 20260505181904 | 72 | 327 | 0.0 | 0.0 | 0.00 | 1.55 | 0.00 | 92 | 1011.6 |
| 20260505181404 | 72 | 329 | 0.0 | 0.0 | 0.00 | 1.55 | 0.00 | 91 | 1011.6 |
| 20260505180903 | 72 | 329 | 0.0 | 1.0 | 0.00 | 1.56 | 0.00 | 91 | 1011.5 |
| 20260505175404 | 72 | 297 | 0.0 | 0.0 | 0.00 | 1.61 | 0.00 | 91 | 1011.4 |
| 20260505174904 | 72 | 282 | 1.0 | 2.0 | 0.00 | 1.61 | 0.00 | 91 | 1011.5 |
| 20260505174404 | 72 | 357 | 0.0 | 1.0 | 0.00 | 1.61 | 0.00 | 92 | 1011.5 |
| 20260505173904 | 72 | 44 | 0.0 | 2.0 | 0.00 | 1.61 | 0.00 | 92 | 1011.6 |
| 20260505172905 | 72 | 56 | 2.0 | 5.0 | 0.00 | 1.61 | 0.00 | 92 | 1011.7 |
| 20260505172403 | 72 | 51 | 1.0 | 3.0 | 0.00 | 1.61 | 0.00 | 92 | 1011.7 |
| 20260505170904 | 72 | 349 | 0.0 | 1.0 | 0.00 | 1.61 | 0.00 | 93 | 1011.8 |
| 20260505170403 | 72 | 54 | 1.0 | 3.0 | 0.00 | 1.61 | 0.00 | 93 | 1011.8 |
| 20260505165904 | 72 | 344 | 0.0 | 1.0 | 0.00 | 1.61 | 0.00 | 93 | 1011.8 |
| 20260505165404 | 72 | 343 | 0.0 | 0.0 | 0.00 | 1.61 | 0.00 | 93 | 1011.9 |
| 20260505164904 | 72 | 345 | 0.0 | 1.0 | 0.00 | 1.61 | 0.00 | 93 | 1011.9 |
| 20260505164404 | 72 | 306 | 0.0 | 2.0 | 0.00 | 1.61 | 0.00 | 93 | 1012.0 |
| 20260505163405 | 72 | 9 | 0.0 | 1.0 | 0.00 | 1.61 | 0.00 | 93 | 1012.1 |
| 20260505162904 | 72 | 295 | 0.0 | 1.0 | 0.00 | 1.61 | 0.00 | 94 | 1012.0 |
| 20260505162403 | 72 | 322 | 0.0 | 0.0 | 0.00 | 1.61 | 0.00 | 94 | 1012.1 |
| 20260505161904 | 72 | 323 | 0.0 | 0.0 | 0.00 | 1.61 | 0.00 | 94 | 1012.2 |
| 20260505161404 | 72 | 19 | 0.0 | 2.0 | 0.00 | 1.61 | 0.00 | 94 | 1012.2 |
| 20260505160904 | 72 | 291 | 0.0 | 0.0 | 0.00 | 1.61 | 0.00 | 94 | 1012.2 |
| 20260505152904 | 72 | 6 | 0.0 | 0.0 | 0.00 | 1.61 | 1.61 | 94 | 1012.6 |
| 20260505152404 | 72 | 6 | 0.0 | 0.0 | 0.00 | 1.61 | 1.61 | 94 | 1012.8 |
| 20260505151904 | 72 | 8 | 0.0 | 1.0 | 0.00 | 1.61 | 1.61 | 94 | 1012.9 |
| 20260505151403 | 71 | 12 | 0.0 | 2.0 | 0.00 | 1.61 | 1.61 | 94 | 1013.0 |
| 20260505150904 | 71 | 53 | 2.0 | 3.0 | 0.01 | 1.61 | 1.61 | 94 | 1013.0 |
| 20260505150404 | 71 | 30 | 2.0 | 3.0 | 0.02 | 1.61 | 1.61 | 94 | 1013.0 |
| 20260505124904 | 71 | 324 | 0.0 | 0.0 | 0.00 | 1.59 | 1.58 | 94 | 1012.9 |
| 20260505124404 | 71 | 324 | 0.0 | 0.0 | 0.00 | 1.59 | 1.58 | 94 | 1012.9 |
| 20260505123904 | 71 | 325 | 0.0 | 0.0 | 0.01 | 1.59 | 1.58 | 94 | 1012.8 |
| 20260505123404 | 71 | 327 | 0.0 | 1.0 | 0.03 | 1.59 | 1.58 | 94 | 1012.7 |
| 20260505122904 | 71 | 333 | 0.0 | 1.0 | 0.05 | 1.59 | 1.58 | 94 | 1012.7 |
| 20260505122404 | 70 | 279 | 0.0 | 1.0 | 0.05 | 1.59 | 1.58 | 94 | 1012.7 |
| 20260505121904 | 70 | 278 | 0.0 | 0.0 | 0.05 | 1.59 | 1.58 | 94 | 1012.7 |
| 20260505121404 | 71 | 275 | 0.0 | 1.0 | 0.06 | 1.59 | 1.58 | 94 | 1012.6 |
| 20260505120904 | 71 | 275 | 0.0 | 0.0 | 0.06 | 1.59 | 1.58 | 94 | 1012.6 |
| 20260505120404 | 71 | 275 | 0.0 | 1.0 | 0.06 | 1.60 | 1.58 | 94 | 1012.6 |
| 20260505115904 | 71 | 311 | 0.0 | 0.0 | 0.06 | 1.60 | 1.58 | 94 | 1012.5 |
| 20260505115403 | 71 | 331 | 0.0 | 1.0 | 0.06 | 1.60 | 1.58 | 94 | 1012.5 |
| 20260505114903 | 71 | 350 | 0.0 | 0.0 | 0.06 | 1.60 | 1.58 | 94 | 1012.5 |
| 20260505114404 | 71 | 7 | 0.0 | 0.0 | 0.06 | 1.60 | 1.58 | 94 | 1012.5 |
| 20260505113904 | 71 | 34 | 1.0 | 2.0 | 0.05 | 1.59 | 1.57 | 94 | 1012.5 |
| 20260505113404 | 71 | 71 | 1.0 | 3.0 | 0.05 | 1.57 | 1.55 | 94 | 1012.5 |
| 20260505112403 | 71 | 293 | 0.0 | 1.0 | 0.04 | 1.55 | 1.53 | 94 | 1012.4 |
| 20260505111405 | 71 | 51 | 0.0 | 0.0 | 0.03 | 1.54 | 1.52 | 94 | 1012.2 |
| 20260505110904 | 71 | 59 | 2.0 | 6.0 | 0.03 | 1.54 | 1.52 | 93 | 1012.1 |
| 20260505110404 | 71 | 55 | 3.0 | 6.0 | 0.03 | 1.55 | 1.52 | 93 | 1012.1 |